Multibeam Report for FK140625


Ship Name: Falkor
Chief Scientist: Glazer, Brian
University of Hawaii
Source Organization: Rolling Deck to Repository
Start Date: 2014-06-25
End Date: 2014-07-07


View ISO Metadata

Visit the full NCEI Bathymetry Viewer


Multibeam Bathymetry

Cruise Details

Project: The Iron Eaters of Loihi Seamount
Instrument: Kongsberg EM302

Data Quality

Number of Files: 95
Number of Records: 70862
BATHYMETRY DATA Quantity Percentage
Number of Beams 30612384 100%
Number of Good Beams 28978561 94.66%
Number of Zero Beams 0 0%
Number of Flagged Beams 1633823 5.34%
AMPLITUDE DATA Quantity Percentage
Number of Beams 30612384 100%
Number of Good Beams 28978561 94.66%
Number of Zero Beams 0 0%
Number of Flagged Beams 1633823 5.34%
SIDESCAN DATA Quantity Percentage
Number of Pixels 72562688 100%
Number of Good Pixels 52285622 72.06%
Number of Zero Pixels 0 0%
Number of Flagged Pixels 20277066 27.94%

Navigation Totals

Total Time: 67.844 hours
Total Track Length: 848.3702 km
Average Speed: 12.505 km/hr (6.7522 knots)

Cruise Bounds

Northern Extent: 21.268574
Southern Extent: 18.704025
Western Extent: -157.89525
Eastern Extent: -155.05255

Limits

Minimum Sonar Depth 3.2144 Maximum Sonar Depth 7.6612
Minimum Altitude 39.6014 Maximum Altitude 5866.2432
Minimum Depth 42.2458 Maximum Depth 6747.7275
Minimum Amplitude 0 Maximum Amplitude 47
Minimum Sidescan 0 Maximum Sidescan 49.15

File Information

Full Resolution Bathymetry as collected (raw): 92

Files File Size Description
0000_20140626_021433_FK140626_EM302.all.mb58.gz 2.7KB Kongsberg multibeam vendor format
0001_20140626_021434_FK140626_EM302.all.mb58.gz 122.75MB Kongsberg multibeam vendor format
0002_20140626_031413_FK140626_EM302.all.mb58.gz 235.38MB Kongsberg multibeam vendor format
0003_20140626_041413_FK140626_EM302.all.mb58.gz 416.72MB Kongsberg multibeam vendor format
0004_20140626_051417_FK140626_EM302.all.mb58.gz 5.20MB Kongsberg multibeam vendor format
0005_20140626_052037_FK140626_EM302.all.mb58.gz 34.80MB Kongsberg multibeam vendor format
0007_20140626_184211_FK140626_EM302.all.mb58.gz 132.1KB Kongsberg multibeam vendor format
0008_20140626_184706_FK140626_EM302.all.mb58.gz 11.1KB Kongsberg multibeam vendor format
0009_20140626_185624_FK140626_EM302.all.mb58.gz 32.55MB Kongsberg multibeam vendor format
0010_20140626_194010_FK140626_EM302.all.mb58.gz 38.57MB Kongsberg multibeam vendor format
0011_20140626_203943_FK140626_EM302.all.mb58.gz 38.44MB Kongsberg multibeam vendor format
0012_20140626_213945_FK140626_EM302.all.mb58.gz 35.37MB Kongsberg multibeam vendor format
0013_20140626_223942_FK140626_EM302.all.mb58.gz 33.46MB Kongsberg multibeam vendor format
0014_20140626_233945_FK140626_EM302.all.mb58.gz 33.20MB Kongsberg multibeam vendor format
0015_20140627_003948_FK140626_EM302.all.mb58.gz 33.05MB Kongsberg multibeam vendor format
0016_20140627_013943_FK140626_EM302.all.mb58.gz 33.08MB Kongsberg multibeam vendor format
0017_20140627_023947_FK140626_EM302.all.mb58.gz 33.15MB Kongsberg multibeam vendor format
0018_20140627_033942_FK140626_EM302.all.mb58.gz 34.03MB Kongsberg multibeam vendor format
0019_20140627_043944_FK140626_EM302.all.mb58.gz 36.88MB Kongsberg multibeam vendor format
0020_20140627_053944_FK140626_EM302.all.mb58.gz 36.89MB Kongsberg multibeam vendor format
0021_20140627_063942_FK140626_EM302.all.mb58.gz 39.21MB Kongsberg multibeam vendor format
0022_20140627_073942_FK140626_EM302.all.mb58.gz 36.25MB Kongsberg multibeam vendor format
0023_20140627_083942_FK140626_EM302.all.mb58.gz 34.25MB Kongsberg multibeam vendor format
0024_20140627_093945_FK140626_EM302.all.mb58.gz 39.13MB Kongsberg multibeam vendor format
0025_20140627_103942_FK140626_EM302.all.mb58.gz 39.25MB Kongsberg multibeam vendor format
0026_20140627_113942_FK140626_EM302.all.mb58.gz 39.28MB Kongsberg multibeam vendor format
0027_20140627_123942_FK140626_EM302.all.mb58.gz 39.19MB Kongsberg multibeam vendor format
0028_20140627_133943_FK140626_EM302.all.mb58.gz 37.45MB Kongsberg multibeam vendor format
0029_20140627_143948_FK140626_EM302.all.mb58.gz 33.01MB Kongsberg multibeam vendor format
0030_20140627_153948_FK140626_EM302.all.mb58.gz 17.7KB Kongsberg multibeam vendor format
0031_20140627_154845_FK140626_EM302.all.mb58.gz 20.9KB Kongsberg multibeam vendor format
0032_20140627_155258_FK140626_EM302.all.mb58.gz 32.45MB Kongsberg multibeam vendor format
0033_20140627_165248_FK140626_EM302.all.mb58.gz 17.09MB Kongsberg multibeam vendor format
0034_20140628_032016_FK140626_EM302.all.mb58.gz 23.0KB Kongsberg multibeam vendor format
0035_20140628_032027_FK140626_EM302.all.mb58.gz 32.69MB Kongsberg multibeam vendor format
0036_20140628_042030_FK140626_EM302.all.mb58.gz 44.47MB Kongsberg multibeam vendor format
0037_20140628_052026_FK140626_EM302.all.mb58.gz 46.56MB Kongsberg multibeam vendor format
0038_20140628_062028_FK140626_EM302.all.mb58.gz 46.77MB Kongsberg multibeam vendor format
0039_20140628_072029_FK140626_EM302.all.mb58.gz 47.36MB Kongsberg multibeam vendor format
0040_20140628_082028_FK140626_EM302.all.mb58.gz 43.81MB Kongsberg multibeam vendor format
0041_20140628_092029_FK140626_EM302.all.mb58.gz 17.19MB Kongsberg multibeam vendor format
0042_20140629_090007_FK140626_EM302.all.mb58.gz 1.02MB Kongsberg multibeam vendor format
0043_20140629_091429_FK140626_EM302.all.mb58.gz 32.69MB Kongsberg multibeam vendor format
0044_20140629_101435_FK140626_EM302.all.mb58.gz 43.31MB Kongsberg multibeam vendor format
0045_20140629_111432_FK140626_EM302.all.mb58.gz 48.44MB Kongsberg multibeam vendor format
0046_20140629_121431_FK140626_EM302.all.mb58.gz 49.96MB Kongsberg multibeam vendor format
0047_20140629_131433_FK140626_EM302.all.mb58.gz 49.29MB Kongsberg multibeam vendor format
0048_20140629_141436_FK140626_EM302.all.mb58.gz 32.91MB Kongsberg multibeam vendor format
0049_20140629_151232_FK140626_EM302.all.mb58.gz 17.73MB Kongsberg multibeam vendor format
0051_20140629_162618_FK140626_EM302.all.mb58.gz 3.10MB Kongsberg multibeam vendor format
0052_20140629_222644_FK140626_EM302.all.mb58.gz 28.70MB Kongsberg multibeam vendor format
0053_20140629_230722_FK140626_EM302.all.mb58.gz 98.2KB Kongsberg multibeam vendor format
0054_20140629_231830_FK140626_EM302.all.mb58.gz 2.88MB Kongsberg multibeam vendor format
0055_20140630_003630_FK140626_EM302.all.mb58.gz 0.57MB Kongsberg multibeam vendor format
0056_20140630_003753_FK140626_EM302.all.mb58.gz 51.15MB Kongsberg multibeam vendor format
0057_20140630_013748_FK140626_EM302.all.mb58.gz 55.56MB Kongsberg multibeam vendor format
0058_20140630_023751_FK140626_EM302.all.mb58.gz 23.17MB Kongsberg multibeam vendor format
0059_20140630_031911_FK140626_EM302.all.mb58.gz 7.27MB Kongsberg multibeam vendor format
0060_20140701_044516_FK140626_EM302.all.mb58.gz 32.41MB Kongsberg multibeam vendor format
0061_20140701_054518_FK140626_EM302.all.mb58.gz 37.42MB Kongsberg multibeam vendor format
0062_20140701_064512_FK140626_EM302.all.mb58.gz 20.05MB Kongsberg multibeam vendor format
0063_20140701_152015_FK140626_EM302.all.mb58.gz 60.87MB Kongsberg multibeam vendor format
0064_20140701_162013_FK140626_EM302.all.mb58.gz 21.09MB Kongsberg multibeam vendor format
0064_20140701_174556_FK140626_EM302.all.mb58.gz 40.88MB Kongsberg multibeam vendor format
0065_20140701_184602_FK140626_EM302.all.mb58.gz 21.89MB Kongsberg multibeam vendor format
0066_20140701_192646_FK140626_EM302.all.mb58.gz 32.69MB Kongsberg multibeam vendor format
0067_20140701_202649_FK140626_EM302.all.mb58.gz 5.33MB Kongsberg multibeam vendor format
0068_20140701_203641_FK140626_EM302.all.mb58.gz 2.91MB Kongsberg multibeam vendor format
0069_20140701_204202_FK140626_EM302.all.mb58.gz 10.71MB Kongsberg multibeam vendor format
0071_20140702_215544_FK140626_EM302.all.mb58.gz 34.29MB Kongsberg multibeam vendor format
0072_20140702_225542_FK140626_EM302.all.mb58.gz 26.35MB Kongsberg multibeam vendor format
0074_20140703_073822_FK140626_EM302.all.mb58.gz 294.0KB Kongsberg multibeam vendor format
0075_20140703_144850_FK140626_EM302.all.mb58.gz 43.85MB Kongsberg multibeam vendor format
0076_20140703_154847_FK140626_EM302.all.mb58.gz 21.17MB Kongsberg multibeam vendor format
0077_20140703_234825_FK140626_EM302.all.mb58.gz 32.48MB Kongsberg multibeam vendor format
0078_20140704_004824_FK140626_EM302.all.mb58.gz 32.34MB Kongsberg multibeam vendor format
0079_20140704_014830_FK140626_EM302.all.mb58.gz 7.52MB Kongsberg multibeam vendor format
0081_20140705_051205_FK140626_EM302.all.mb58.gz 33.66MB Kongsberg multibeam vendor format
0082_20140705_061144_FK140626_EM302.all.mb58.gz 43.39MB Kongsberg multibeam vendor format
0083_20140705_071152_FK140626_EM302.all.mb58.gz 14.81MB Kongsberg multibeam vendor format
0084_20140705_154411_FK140626_EM302.all.mb58.gz 43.53MB Kongsberg multibeam vendor format
0085_20140705_164411_FK140626_EM302.all.mb58.gz 33.07MB Kongsberg multibeam vendor format
0086_20140705_174414_FK140626_EM302.all.mb58.gz 32.28MB Kongsberg multibeam vendor format
0087_20140705_184411_FK140626_EM302.all.mb58.gz 32.33MB Kongsberg multibeam vendor format
0088_20140705_194407_FK140626_EM302.all.mb58.gz 32.40MB Kongsberg multibeam vendor format
0089_20140705_204414_FK140626_EM302.all.mb58.gz 32.15MB Kongsberg multibeam vendor format
0090_20140705_214413_FK140626_EM302.all.mb58.gz 32.33MB Kongsberg multibeam vendor format
0091_20140705_224408_FK140626_EM302.all.mb58.gz 20.31MB Kongsberg multibeam vendor format
0092_20140706_160503_FK140626_EM302.all.mb58.gz 32.49MB Kongsberg multibeam vendor format
0093_20140706_170505_FK140626_EM302.all.mb58.gz 32.75MB Kongsberg multibeam vendor format
0094_20140706_180500_FK140626_EM302.all.mb58.gz 59.07MB Kongsberg multibeam vendor format
0095_20140706_190500_FK140626_EM302.all.mb58.gz 12.97MB Kongsberg multibeam vendor format

Metadata Files: 2

Files File Size Description
FK140625_Multibeam.xml NGDC created ISO metadata
em302_bag_info.tar.gz 7.5KB Additional cruise information

Water Column Sonar Data

Water Column Sonar Data Available: WCSD Map Viewer